Flag for Spain Weather past 2 weeks in Valladolid, Spain

Now
39 °F

Fog.


Feels Like: 39 °F
Forecast: 37 / 50 °F
Wind: 1 mph from North

Location: Valladolid / Villanubla

Current Time: Dec 20, 2014 at 3:28:17 PM

Latest Report: Dec 20, 2014 at 3:00 PM


Visibility: 0 mi

Pressure: 30.54 "Hg

Humidity: 100%

Dew point: 39 °F

Location of ValladolidLocation

Historic Weather in Valladolid — Graph

°F

Valladolid temperature yesterday

Maximum temperature yesterday: 39 °F (at 3:30 PM)
Minimum temperature yesterday: 36 °F (at 7:00 AM)
Average temperature yesterday: 37 °F

Past Weeks' High & Low Weather Summary

 TemperatureHumidityPressure
High54 °F (Dec 16, 4:00 PM)100% (Dec 6, 8:00 AM)30.60 "Hg (Dec 6, 8:00 AM)
Low27 °F (Dec 8, 7:00 AM)46% (Dec 15, 2:30 PM)29.74 "Hg (Dec 13, 3:30 PM)
Average40 °F89%30.27 "Hg
* Reported Dec 5 2:00 PM — Dec 20 2:30 PM, Valladolid, Weather by CustomWeather, © 2014

Note: Actual official high and low records may vary slightly from our data, if they occured in-between our weather recording intervals... More about our weather records

Advertising

Valladolid weather history for previous 24 hours

 ConditionsComfort  
Time TempWeatherWind HumidityBarometerVisibility
2:30 PM
Dec 20
37 °FFog.No wind100%30.54 "Hg0 mi
2:00 PM37 °FFog.1 mph100%30.57 "Hg0 mi
1:30 PM37 °FFog.1 mph100%30.57 "Hg0 mi
1:00 PM36 °FFog.1 mph100%30.57 "Hg0 mi
12:30 PM36 °FFog.1 mph100%30.57 "Hg0 mi
12:00 PM36 °FFog.1 mph100%30.60 "Hg0 mi
11:30 AM36 °FFog.No wind100%30.60 "Hg0 mi
11:00 AM34 °FFog.No wind100%30.60 "Hg0 mi
10:30 AM34 °FFog.No wind100%30.57 "Hg0 mi
10:00 AM34 °FFog.No wind100%30.57 "Hg0 mi
9:30 AM34 °FFog.1 mph100%30.57 "Hg0 mi
9:00 AM34 °FFog.1 mph100%30.54 "Hg0 mi
8:30 AM34 °FFog.No wind100%30.54 "Hg0 mi
8:00 AM34 °FFog.No wind100%30.54 "Hg0 mi
7:30 AM34 °FFog.No wind100%30.54 "Hg0 mi
7:00 AM34 °FFog.2 mph100%30.54 "Hg0 mi
9:30 PM
Dec 19
36 °FLow clouds.1 mph100%30.51 "Hg5 mi
9:00 PM36 °FLow clouds.1 mph100%30.51 "HgN/A
8:30 PM36 °FLow clouds.No wind100%30.51 "HgN/A
8:00 PM36 °FLow clouds.1 mph100%30.51 "HgN/A
7:30 PM36 °FLow clouds.1 mph100%30.48 "HgN/A
7:00 PM36 °FLow clouds.No wind100%30.48 "HgN/A
6:30 PM37 °FLow clouds.1 mph100%30.48 "HgN/A
6:00 PM37 °FLow clouds.No wind100%30.45 "HgN/A
5:30 PM37 °FLow clouds.2 mph100%30.45 "HgN/A
5:00 PM37 °FLow clouds.1 mph100%30.45 "HgN/A
4:30 PM37 °FLow clouds.No wind100%30.45 "HgN/A
4:00 PM37 °FLow clouds.3 mph100%30.45 "Hg4 mi
3:30 PM39 °FFog.2 mph100%30.45 "Hg2 mi
3:00 PM37 °FFog.3 mph100%30.45 "Hg1 mi
Weather by CustomWeather, © 2014

See weather overviewHow to use our weather pages